Location: Frizzleburg
(41.0764°N, 80.4548°W)
Time: 16:48:43
(UTC+00:00)

Meteor 2-2 Rocket - Pass Details

Date: 17 November 2019
Orbit: 852 x 929 km, 81.3° (Epoch: 10 December)

Event Time Altitude Azimuth Distance (km) Brightness Sun altitude
Exits shadow 09:28:45 60° 40° (NE) 974 4.5 -30.6°
Maximum altitude 09:29:26 66° 79° (ENE) 930 4.5 -30.5°
Drops below altitude 10° 09:35:01 10° 161° (SSE) 2,482 6.8 -29.4°
Sets 09:37:28 0° 164° (SSE) 3,421 7.6 -29.0°
